{"data":{"norad_id":63831,"intl_designator":"2025-092AD","name":"STARLINK-33940","alt_names":[],"object_type":"PAYLOAD","status":"ACTIVE","operator":null,"country":"US","launch_date":"2025-05-04","launch_site_code":"AFETR","launch_vehicle":null,"mission":null,"orbit_class":"UNKNOWN","rcs_meters":null,"size_class":null,"mass_kg":null,"dimensions":null,"purposes":["comms"],"wikipedia_slug":null,"has_3d_model":false,"image_url":null,"decayed_at":null,"tle_current":{"epoch":"2026-05-24T22:15:29.147616Z","epoch_age_seconds":91905,"freshness":"FRESH","line1":"1 63831U 25092AD  26144.92742069  .00013081  00000+0  48412-3 0  9999","line2":"2 63831  43.0019 102.0463 0001207 260.0434 100.0282 15.27574676 60329","mean_motion":15.27574676,"eccentricity":0.0001207,"inclination_deg":43.0019,"raan_deg":102.0463,"arg_perigee_deg":260.0434,"mean_anomaly_deg":100.0282,"bstar":0.00048412,"rev_number":6032,"period_min":94.267077258094,"perigee_km":482.23689097126,"apogee_km":483.89318514325,"semimajor_km":6861.2020380573,"source":"CELESTRAK","updated_at":"2026-05-25T13:38:20.145349Z"}}}